Dewpoint
74 72 72 71 72 72 73 71 73 73 73 74 75 72 74 72 67 67 67 68 68 69 69 67 69 76 76 76 77 74 71 73 74 71 72 72 72 73 73 74 73 73 73 73 73 74 74 74 75 77 77 77 77 77 77 77 77 77 77 77 76 75 73 71 70 67 67 66 66 66 66 67 69 69
74 74 73 71 74 72 72 71 72 75 75 75 74 75 73 73 70 70 66 67 69 70 71 70 69 74 71 71 74 76 74 74 72 70 71 72 71 71 71 71 71 71 71 72 72 73 73 74 75 75 76 76 75 75 76 76 76 76 76 77 76 76 73 70 69 69 67 67 67 66 66 67 68 68
74 73 72 76 74 75 74 74 72 74 74 73 74 74 74 74 72 72 69 66 70 73 70 72 71 71 71 71 71 70 72 72 71 70 72 73 73 72 72 70 70 70 70 70 71 72 72 72 72 72 72 73 73 73 74 76 75 76 76 76 76 75 73 70 69 69 68 68 66 66 67 67 68 68
73 73 73 74 73 73 75 73 73 75 76 74 73 74 75 74 76 73 70 67 68 73 73 73 73 73 71 71 70 72 72 70 73 72 74 72 73 71 68 69 69 69 69 69 70 70 71 70 70 70 71 71 72 72 75 76 75 75 76 76 75 74 72 70 70 69 68 68 67 66 66 67 68 68
73 73 73 74 74 75 73 73 73 72 71 74 75 75 77 75 75 73 71 69 69 72 75 74 73 72 72 71 71 71 70 69 69 72 70 72 69 66 66 68 67 67 68 68 69 69 69 69 69 69 70 70 71 72 72 73 73 74 75 75 73 71 71 71 70 69 68 68 68 67 66 66 68 69
74 74 74 74 75 75 74 73 71 70 70 70 71 75 73 73 74 74 71 71 71 70 73 73 75 74 73 71 73 70 69 69 72 70 69 69 68 66 65 67 66 67 67 68 69 69 69 68 67 68 69 69 70 70 70 70 70 72 73 72 70 69 70 71 70 69 68 68 68 68 67 66 66 68
73 73 73 74 75 74 72 72 72 71 69 73 71 71 73 72 73 75 74 73 72 72 72 74 73 72 73 72 70 71 71 71 71 69 68 68 66 66 67 67 65 66 67 66 67 68 68 67 67 67 67 68 68 68 68 67 67 68 69 68 68 69 70 69 69 69 68 67 68 68 68 67 67 67
73 73 72 72 72 72 72 73 72 72 72 70 76 73 74 73 73 74 76 75 72 73 72 73 73 73 71 71 71 71 72 71 70 69 69 69 69 68 67 67 66 65 66 66 66 68 68 67 66 65 66 66 65 65 65 64 64 64 66 67 67 67 67 66 67 68 67 66 66 67 67 67 67 67
74 73 71 71 72 71 70 71 73 72 71 70 70 71 73 72 75 76 76 75 74 73 72 72 73 73 73 73 72 72 71 71 69 69 71 71 70 69 69 69 67 66 65 65 65 65 65 66 65 65 65 65 64 64 64 64 63 63 63 64 64 65 65 65 65 66 66 65 64 65 66 67 67 67
74 73 74 74 73 73 72 71 71 72 71 74 72 71 71 72 74 74 73 74 74 73 72 71 71 71 71 71 71 71 69 67 66 66 67 68 70 71 70 71 69 67 64 64 65 66 65 65 63 65 65 65 64 64 63 64 64 63 62 61 62 65 64 63 64 64 64 63 62 63 64 65 66 66
72 73 72 73 72 71 72 71 71 71 71 70 70 72 72 74 73 72 72 72 73 73 72 71 71 69 70 70 68 68 69 69 69 68 69 67 70 72 72 69 70 68 68 68 68 68 67 68 67 65 64 65 64 63 63 63 64 64 63 60 60 61 62 63 62 62 63 63 62 61 61 62 64 65
73 72 72 71 71 71 71 71 71 72 71 72 71 71 71 73 73 73 73 72 71 70 71 70 69 69 69 70 70 71 70 69 68 71 69 67 69 69 70 69 70 71 71 70 69 69 68 68 69 67 67 68 67 66 66 67 68 67 65 62 63 63 61 61 61 61 61 62 61 61 60 60 62 63
72 72 71 70 69 71 77 77 77 76 75 71 71 74 74 73 72 72 72 71 71 71 71 71 71 70 70 70 69 68 67 65 64 67 71 70 70 71 71 72 73 73 71 71 71 71 71 71 71 71 71 71 71 70 68 68 69 68 65 63 63 63 62 61 61 61 61 60 60 60 60 60 59 60
72 71 71 70 73 73 72 73 75 76 77 76 71 70 72 72 72 72 72 71 70 70 69 69 69 69 68 68 67 66 67 66 70 70 70 69 71 72 72 72 73 74 73 73 72 72 72 71 71 72 72 72 72 71 71 70 69 68 65 64 63 63 62 61 60 60 60 60 60 59 59 59 59 59
73 72 71 71 71 76 76 74 76 76 76 76 75 75 76 75 71 70 70 70 70 70 70 71 70 69 67 67 67 68 68 67 71 70 70 71 71 71 70 71 72 74 74 72 71 71 71 72 72 72 72 72 72 72 71 68 68 66 65 64 64 63 63 63 61 60 59 60 60 59 58 58 58 58
72 71 70 69 67 70 74 73 75 77 77 76 75 75 74 74 76 74 70 69 68 68 67 68 69 69 69 69 69 68 68 69 70 70 72 72 71 72 71 70 70 72 73 71 71 71 72 73 73 73 73 73 72 70 68 66 66 65 65 64 63 63 63 63 63 62 60 60 61 60 60 59 59 58
71 71 71 71 71 69 70 75 72 72 72 75 74 74 74 75 74 70 70 71 70 68 69 69 69 68 68 67 68 71 72 72 72 72 72 72 72 72 71 70 70 71 72 72 72 71 72 73 73 73 73 72 71 71 69 67 67 66 65 64 63 63 63 63 62 62 62 61 60 59 59 59 59 58
70 72 72 72 73 74 74 75 76 76 74 75 75 74 72 72 73 75 71 70 70 72 70 69 68 68 69 68 70 74 73 72 72 72 70 71 71 71 70 71 72 73 74 73 72 71 72 73 72 70 70 71 71 72 69 66 67 65 64 63 62 62 63 63 62 62 61 61 60 59 58 57 58 57
71 70 71 72 73 74 74 74 75 73 74 75 76 75 75 74 73 74 74 74 74 72 71 71 70 70 70 70 71 71 70 70 71 72 72 72 72 72 73 73 73 73 74 73 71 69 70 70 70 70 71 71 72 72 68 67 66 65 65 64 63 62 62 62 62 62 61 61 60 59 58 57 57 57
72 72 72 72 73 74 70 69 68 72 75 75 74 74 74 75 75 74 73 69 69 73 73 73 72 71 71 69 71 71 71 70 71 73 73 73 72 72 71 71 72 72 73 74 72 69 69 71 71 70 71 71 71 72 72 68 68 67 67 66 66 64 62 61 62 62 61 61 60 59 58 56 55 56
73 74 73 72 73 73 69 65 61 66 75 74 74 74 74 74 73 72 72 68 66 66 65 64 64 63 63 62 62 61 62 67 69 70 71 71 71 71 71 71 71 71 72 72 73 71 71 71 71 71 71 71 71 71 71 72 69 67 67 67 66 65 63 63 61 61 61 61 60 59 59 57 55 56
73 74 76 75 71 69 67 61 61 65 73 72 72 72 72 71 71 71 71 71 71 69 69 69 69 68 66 66 65 66 64 63 67 71 71 72 72 71 71 71 71 71 71 72 74 71 71 71 72 71 71 71 71 71 71 72 71 68 68 67 65 65 65 64 62 61 60 60 60 59 58 57 57 58
73 73 74 74 72 69 65 58 59 62 71 71 71 71 71 71 71 70 69 70 70 71 71 71 71 72 73 74 74 74 74 74 75 73 72 72 72 71 71 71 70 69 70 72 74 71 71 71 71 71 71 70 71 71 72 72 72 72 72 73 73 66 64 64 63 60 59 59 59 59 58 56 56 61
73 72 71 68 63 60 58 57 56 57 60 69 70 71 71 70 71 69 68 70 70 70 69 69 70 71 73 73 73 73 74 74 74 75 75 74 72 71 70 70 69 69 70 72 73 71 71 72 71 72 71 69 68 70 72 72 72 72 72 73 72 68 67 67 67 66 62 58 57 57 57 56 57 62
71 71 72 69 62 58 58 57 56 55 57 64 69 70 70 71 68 67 67 68 69 67 68 69 70 72 72 72 72 73 73 73 73 74 73 74 74 72 71 70 69 70 71 72 71 72 71 72 71 72 71 70 71 71 71 71 72 72 73 72 72 72 72 71 70 72 68 65 58 54 55 55 55 61
71 71 70 71 65 58 59 57 55 53 55 59 66 69 63 60 60 66 69 67 67 67 67 67 70 71 71 72 72 71 71 72 73 73 73 73 73 73 73 71 71 70 70 72 69 72 72 71 71 71 71 70 71 71 70 70 71 71 71 72 72 72 72 71 71 71 72 73 73 63 59 54 55 56
71 71 70 71 66 56 54 51 51 52 54 60 62 58 57 58 59 66 65 67 67 67 67 68 69 70 71 70 70 70 70 71 71 72 73 73 71 72 72 73 73 73 72 72 74 74 73 72 71 71 70 70 70 70 70 69 68 70 70 70 71 71 71 71 71 71 72 72 73 66 58 55 54 55
65 66 66 67 58 52 49 50 52 54 57 61 56 55 56 58 64 65 66 66 67 68 68 69 69 69 70 68 68 68 70 70 69 72 72 68 69 69 68 69 70 71 72 72 72 73 73 72 72 72 71 71 70 69 68 69 69 69 69 70 70 71 71 72 71 72 72 72 72 73 71 70 63 58
65 61 56 54 53 53 53 53 54 57 60 57 54 53 55 64 66 67 67 68 70 66 64 64 63 62 64 66 66 68 68 67 68 70 68 67 68 67 67 67 69 69 69 69 70 71 73 72 71 71 71 71 70 70 69 69 69 68 69 69 69 70 71 72 72 71 71 71 71 72 73 73 72 63
59 57 57 57 58 60 61 64 66 68 69 66 64 63 64 65 66 67 68 62 60 60 60 61 60 61 63 64 66 65 64 64 65 67 66 66 65 65 65 65 65 66 67 66 66 66 67 68 67 66 66 67 68 67 67 68 67 68 69 69 70 71 71 72 72 72 72 71 71 72 72 73 73 69
59 62 64 62 59 59 60 61 63 63 65 66 66 67 68 68 68 65 59 58 58 60 59 60 60 61 63 62 60 60 61 63 64 66 66 64 64 65 65 65 64 64 64 64 63 65 60 59 60 60 59 59 59 60 62 66 66 67 68 70 71 69 70 70 68 69 68 65 63 65 67 69 70 72
59 61 63 62 65 65 66 66 66 66 66 66 67 67 61 60 63 63 63 63 59 59 59 58 58 58 57 57 59 60 60 59 59 61 60 61 60 61 63 62 62 62 59 58 59 60 59 56 56 57 57 58 57 58 60 60 62 66 65 63 63 63 62 60 57 55 56 58 58 57 58 60 62 65
58 59 61 62 62 62 63 65 66 66 66 66 63 60 59 58 58 58 58 58 58 58 57 56 56 56 57 58 58 57 56 57 58 59 57 58 57 57 58 58 58 56 55 56 55 53 52 53 56 57 57 58 58 59 60 59 62 56 52 54 56 56 53 51 52 53 55 57 57 58 58 60 61 62
55 58 61 62 62 62 64 65 65 63 63 60 58 59 60 58 57 57 59 59 58 57 56 56 55 56 58 56 56 56 57 57 57 57 57 57 57 56 56 56 55 56 56 53 51 50 52 53 54 55 57 59 61 61 63 58 55 52 52 53 52 52 52 52 53 55 57 57 58 59 59 60 61 63
60 61 61 60 59 61 63 61 60 59 58 58 57 57 58 59 59 59 58 57 56 55 55 55 56 56 57 55 56 56 57 57 57 57 57 57 56 56 56 55 55 54 52 51 50 50 51 52 53 54 57 57 56 58 65 57 53 52 51 51 52 52 53 54 55 56 58 59 60 60 59 59 61 63
61 60 60 60 56 56 55 57 58 56 56 58 57 57 57 57 58 56 56 55 55 55 54 55 55 56 56 55 55 56 56 57 56 56 55 55 55 55 54 54 53 52 51 51 51 51 52 53 54 56 54 50 50 49 50 57 57 53 51 52 53 54 54 55 57 58 59 59 60 59 57 57 57 57
60 60 60 59 57 56 55 55 56 56 57 56 56 56 57 58 58 57 57 56 56 56 55 55 55 56 55 55 56 56 56 56 55 55 54 53 52 51 50 51 52 51 50 51 52 52 53 53 55 56 51 49 49 48 49 52 54 54 54 53 53 55 55 56 57 57 57 57 56 56 55 55 54 54
58 59 59 58 58 57 57 56 57 56 56 56 56 56 55 56 56 56 56 55 55 55 55 55 56 55 55 56 55 53 53 54 54 52 51 51 50 49 50 50 49 50 50 51 53 53 53 52 52 52 51 49 48 48 48 50 52 54 54 55 54 55 57 57 54 53 54 54 53 54 53 52 52 53
59 59 57 58 59 57 57 57 56 56 56 56 56 56 55 55 54 54 55 55 55 55 54 54 53 53 53 53 53 53 52 52 51 51 50 50 50 49 50 50 49 49 50 49 49 49 49 49 50 51 50 50 50 49 50 50 51 53 55 53 55 56 56 54 53 52 50 50 50 52 52 53 53 55
56 56 55 55 55 55 57 58 57 56 56 56 56 56 55 55 54 54 55 55 54 54 53 52 52 51 51 52 52 52 52 52 51 50 50 50 50 51 50 50 49 49 48 48 48 48 48 47 48 48 49 51 53 54 54 55 55 55 55 56 54 54 54 53 50 49 49 50 51 49 48 49 50 52
54 53 53 53 53 53 53 53 54 56 56 55 56 57 55 55 54 54 55 55 55 53 52 51 51 51 51 52 51 50 50 50 50 49 50 50 50 50 50 51 48 49 47 47 47 46 45 45 48 50 54 51 54 55 52 49 48 48 50 53 52 52 51 51 50 50 51 50 48 47 47 48 49 50
52 52 52 52 52 52 51 52 51 51 52 52 52 53 53 54 54 56 53 55 52 53 51 51 51 51 50 51 50 50 49 49 49 49 50 48 47 48 49 48 46 47 47 46 45 44 44 45 48 49 49 51 50 48 47 48 48 49 49 49 52 52 50 50 51 52 50 48 47 48 48 49 50 49
53 51 50 51 51 51 51 51 50 50 50 50 50 51 51 51 51 51 50 49 49 49 49 48 48 48 47 47 48 48 47 47 46 45 45 45 45 45 45 45 45 45 45 44 44 44 45 45 46 47 48 48 48 49 48 49 50 49 48 48 49 49 51 51 51 49 50 51 51 50 50 49 49 48
51 51 50 50 50 50 50 50 50 49 49 49 49 49 49 49 48 48 48 47 47 47 47 46 46 46 45 45 45 44 44 44 43 42 42 42 42 41 42 42 43 42 42 43 44 44 45 45 46 47 47 48 48 47 47 48 47 49 49 49 48 48 48 48 49 49 50 51 51 51 51 51 52 52
50 49 49 49 49 49 49 48 48 48 48 48 48 48 48 48 47 46 46 45 45 45 45 45 44 44 44 44 43 43 43 45 43 42 42 42 41 42 42 42 43 43 43 44 44 44 44 45 45 45 46 47 47 47 48 49 49 48 47 48 48 47 46 47 47 47 48 49 50 51 51 51 52 51